Location: Tucson
(32.2217°N, 110.9265°W)
Time: 01:46:31
(UTC-07:00)

A-11 Canister half - All Passes

Search period start: 21 October 2021 00:00
Search period end: 31 October 2021 00:00
Orbit: 1515 x 1684 km, 47.2° (Epoch: 20 October)

Date Brightness Start Highest point End Pass type
(mag) Time Alt. Az. Time Alt. Az. Time Alt. Az.
21 Oct - 01:24:25 10° NW 01:34:03 76° NE 01:43:21 10° ESE night (unlit)
21 Oct - 03:30:21 10° WNW 03:38:18 32° SW 03:46:09 10° S visible
21 Oct - 16:37:43 10° S 16:46:28 34° SE 16:55:06 10° ENE daylight
21 Oct - 18:40:49 10° WSW 18:50:58 77° NW 19:00:54 10° NE visible
21 Oct - 20:48:13 10° W 20:57:18 37° NNW 21:06:07 10° NE visible
21 Oct - 22:55:57 10° NW 23:04:45 36° NNE 23:13:17 10° ENE visible
22 Oct - 01:01:28 10° NW 01:11:07 72° NE 01:20:25 10° ESE night (unlit)
22 Oct - 03:07:16 10° WNW 03:15:28 35° SW 03:23:31 10° S visible
22 Oct - 16:15:04 10° S 16:23:35 32° SE 16:32:00 10° ENE daylight
22 Oct - 18:17:48 10° SW 18:28:00 81° NW 18:37:58 10° NE visible
22 Oct - 20:25:05 10° W 20:34:15 38° NNW 20:43:09 10° NE visible
22 Oct - 22:32:55 10° NW 22:41:43 35° N 22:50:12 10° ENE visible
23 Oct - 00:38:31 10° NW 00:48:10 69° NNE 00:57:28 10° ESE night (unlit)
23 Oct - 02:44:12 10° WNW 02:52:38 38° SW 03:00:53 10° SSE visible
23 Oct - 15:52:27 10° S 16:00:42 29° SE 16:08:53 10° ENE daylight
23 Oct - 17:54:50 10° SW 18:05:02 85° NW 18:15:03 10° NE visible
23 Oct - 20:01:57 10° W 20:11:11 39° NNW 20:20:12 10° NE visible
23 Oct - 22:09:51 10° NW 22:18:38 34° N 22:27:08 10° ENE visible
24 Oct - 00:15:34 10° NW 00:25:14 65° NNE 00:34:30 10° ESE night (unlit)
24 Oct - 02:21:09 10° WNW 02:29:47 41° SW 02:38:13 10° SSE night (unlit)
24 Oct - 15:29:52 10° S 15:37:50 27° SE 15:45:44 10° ENE daylight
24 Oct - 17:31:52 10° SW 17:42:05 89° NW 17:52:07 10° NE daylight
24 Oct - 19:38:48 10° W 19:48:08 40° NNW 19:57:14 10° NE visible
24 Oct - 21:46:47 10° NW 21:55:34 34° N 22:04:05 10° ENE visible
24 Oct - 23:52:36 10° NW 00:02:15 62° NNE 00:11:32 10° ESE visible
25 Oct - 01:58:06 10° WNW 02:06:56 44° SW 02:15:32 10° SSE night (unlit)
25 Oct - 15:07:19 10° S 15:14:58 25° SE 15:22:33 10° ENE daylight
25 Oct - 17:08:55 10° SW 17:19:08 87° SE 17:29:11 10° NE daylight
25 Oct - 19:15:40 10° W 19:25:05 42° NNW 19:34:17 10° NE visible
25 Oct - 21:23:43 10° NW 21:32:30 34° N 21:41:01 10° ENE visible
25 Oct - 23:29:39 10° NW 23:39:17 59° NNE 23:48:34 10° ESE visible
26 Oct - 01:35:05 10° WNW 01:44:04 47° SW 01:52:49 10° SSE night (unlit)
26 Oct - 14:44:50 10° S 14:52:05 23° SE 14:59:19 10° ENE daylight
26 Oct - 16:46:00 10° SW 16:56:11 83° SE 17:06:14 10° NE daylight
26 Oct - 18:52:32 10° W 19:02:02 43° NNW 19:11:20 10° NE visible
26 Oct - 21:00:38 10° WNW 21:09:26 33° N 21:17:57 10° ENE visible
26 Oct - 23:06:41 10° NW 23:16:19 57° NNE 23:25:34 10° ESE visible
27 Oct - 01:12:03 10° WNW 01:21:13 51° SW 01:30:05 10° SSE night (unlit)
27 Oct - 14:22:23 10° SSE 14:29:13 21° SE 14:36:03 10° E daylight
27 Oct - 16:23:04 10° SW 16:33:14 78° SE 16:43:17 10° NE daylight
27 Oct - 18:29:25 10° W 18:38:59 45° NNW 18:48:22 10° NE visible
27 Oct - 20:37:33 10° WNW 20:46:21 33° N 20:54:54 10° ENE visible
27 Oct - 22:43:43 10° NW 22:53:20 54° NNE 23:02:33 10° ESE visible
28 Oct - 00:49:03 10° WNW 00:58:21 55° SW 01:07:20 10° SSE night (unlit)
28 Oct - 14:00:01 10° SSE 14:06:22 19° ESE 14:12:42 10° E daylight
28 Oct - 16:00:11 10° SW 16:10:17 74° SE 16:20:20 10° NE daylight
28 Oct - 18:06:18 10° W 18:15:57 46° NNW 18:25:26 10° NE visible
28 Oct - 20:14:27 10° WNW 20:23:16 33° N 20:31:50 10° ENE visible
28 Oct - 22:20:46 10° NW 22:30:20 52° NNE 22:39:33 10° ESE visible
29 Oct - 00:26:03 10° WNW 00:35:28 59° SW 00:44:34 10° SSE night (unlit)
29 Oct - 02:36:26 10° WSW 02:38:55 11° WSW 02:41:24 10° SW night (unlit)
29 Oct - 13:37:43 10° SSE 13:43:31 17° ESE 13:49:18 10° E daylight
29 Oct - 15:37:18 10° SW 15:47:22 70° SE 15:57:22 10° NE daylight
29 Oct - 17:43:11 10° W 17:52:55 48° NNW 18:02:29 10° NE visible
29 Oct - 19:51:21 10° WNW 20:00:11 33° N 20:08:47 10° ENE visible
29 Oct - 21:57:47 10° NW 22:07:20 50° NNE 22:16:31 10° E visible
30 Oct - 00:03:03 10° WNW 00:12:35 63° SW 00:21:47 10° SSE night (unlit)
30 Oct - 02:12:22 10° W 02:16:06 13° WSW 02:19:50 10° SW night (unlit)
30 Oct - 13:15:31 10° SSE 13:20:40 15° ESE 13:25:47 10° E daylight
30 Oct - 15:14:26 10° SW 15:24:26 66° SE 15:34:24 10° ENE daylight
30 Oct - 17:20:05 10° W 17:29:53 50° NNW 17:39:33 10° NE daylight
30 Oct - 19:28:15 10° WNW 19:37:06 33° N 19:45:44 10° ENE visible
30 Oct - 21:34:48 10° NW 21:44:20 48° NNE 21:53:29 10° E visible
30 Oct - 23:40:04 10° WNW 23:49:42 67° SW 23:58:59 10° SE visible
